,

(GMT )
Teruel

Tiempo Historia de LETL - Marzo, 2018

Change the Weather History Date:

Miércoles, Marzo 14, 2018

  Actual Average Record
Temperature  
Temperatura media 43 ° F -  
Temperatura máxima 51 ° F - - ()
Temperatura mínima 35 ° F - - ()
Degree Days  
Grados día de calefacción 22    
Moisture  
Punto de rocío 40 ° F    
Average Humidity 81    
Maximum Humidity 93    
Minimum Humidity 67    
Precipitación  
Precipitación 0.00 pul - - ()
Presión al nivel del mar  
Presión al nivel del mar 29.80 pul    
Viento  
Velocidad del viento 8 mph ()    
Velocidad máxima del viento 20 mph    
Max Gust Speed -    
Visibilidad 6.2 Millas    
Eventos      
T = Trace of Precipitation, MM = Missing Value Source: Averaged Metar Reports

Daily Weather History Graph

Daily Weather History Graph

Search for Another Location

Airport or City:

Astronomía

Mar. 14, 2018 Salida Puesta
Hora real 7:18 AM CET 7:10 PM CET
Crepúsculo civil 6:51 AM CET 7:37 PM CET
Crepúsculo náutico 6:19 AM CET 8:09 PM CET
Crepúsculo astronómico 5:47 AM CET 8:41 PM CET
Luna 5:46 AM CET (3/14) 4:13 PM CET (3/14)
Horas de luz 12h 46m
Horas de luz
11h 52m
Creciente menguante, 9% of the Moon is Illuminated
Mar 14
Creciente menguante
Mar 17
Nueva
Mar 24
Cuarto creciente
Mar 31
Luna llena
Abr 8
Cuarto menguante

Hourly Weather History & Observations

Hora (CET) Temp. Vientos helados Punto de rocío Humedad Presión Visibilidad Wind Dir Velocidad del viento Velocidad de ráfagas Precip Eventos Condiciones
12:00 AM 42.8 ° F 41.1 ° F 35.6 ° F 76% 30.01 pul - Este 3.5 mph - N/A   Despejado
1:30 AM 39.2 ° F 33.6 ° F 35.6 ° F 87% 30.01 pul - ESE 8.1 mph - N/A   Despejado
2:00 AM 39.2 ° F 35.9 ° F 35.6 ° F 87% 30.01 pul - ESE 4.6 mph - N/A   Despejado
2:30 AM 39.2 ° F 35.0 ° F 35.6 ° F 87% 30.01 pul 6.2 mi ESE 5.8 mph - N/A   Parcialmente nublado
3:00 AM 37.4 ° F 32.8 ° F 33.8 ° F 87% 30.01 pul 6.2 mi ESE 5.8 mph - N/A   Parcialmente nublado
4:00 AM 37.4 ° F 33.8 ° F 35.6 ° F 93% 29.98 pul - SSE 4.6 mph - N/A   Despejado
4:30 AM 39.2 ° F 35.9 ° F 35.6 ° F 87% 29.98 pul - SSE 4.6 mph - N/A   Despejado
5:00 AM 39.2 ° F 35.9 ° F 33.8 ° F 81% 29.95 pul 6.2 mi SSE 4.6 mph - N/A   Desconocido
6:30 AM 37.4 ° F - 33.8 ° F 87% 29.95 pul 6.2 mi Variable 1.2 mph - N/A   Muy nublado
7:30 AM 35.6 ° F 31.7 ° F 33.8 ° F 93% 29.95 pul 6.2 mi SE 4.6 mph - N/A   Desconocido
8:00 AM 37.4 ° F 33.8 ° F 33.8 ° F 87% 29.92 pul - SE 4.6 mph - N/A   Despejado
8:30 AM 42.8 ° F 39.3 ° F 39.2 ° F 87% 29.92 pul - Sur 5.8 mph - N/A   Despejado
9:00 AM 44.6 ° F 40.2 ° F 39.2 ° F 81% 29.92 pul - Sur 8.1 mph - N/A   Despejado
9:30 AM 44.6 ° F 40.2 ° F 39.2 ° F 81% 29.92 pul - ESE 8.1 mph - N/A   Despejado
10:30 AM 46.4 ° F 40.4 ° F 39.2 ° F 76% 29.89 pul - SSE 13.8 mph - N/A   Despejado
11:00 AM 46.4 ° F 41.5 ° F 39.2 ° F 76% 29.89 pul - SSE 10.4 mph - N/A   Despejado
12:00 PM 48.2 ° F - 39.2 ° F 71% 29.86 pul - Sur 18.4 mph - N/A   Despejado
12:30 PM 48.2 ° F - 39.2 ° F 71% 29.83 pul - SSE 17.3 mph - N/A   Despejado
1:00 PM 51.8 ° F - 41.0 ° F 67% 29.80 pul - SSO 16.1 mph - N/A   Despejado
1:30 PM 51.8 ° F - 41.0 ° F 67% 29.80 pul 6.2 mi Sur 15.0 mph - N/A   Nubes dispersas
2:00 PM 51.8 ° F - 41.0 ° F 67% 29.80 pul 6.2 mi SSO 18.4 mph - N/A   Muy nublado
2:30 PM 51.8 ° F - 41.0 ° F 67% 29.77 pul 6.2 mi Sur 19.6 mph - N/A   Parcialmente nublado
3:00 PM 50.0 ° F - 42.8 ° F 76% 29.74 pul 6.2 mi Sur 16.1 mph - N/A   Nublado
3:30 PM 50.0 ° F - 44.6 ° F 82% 29.71 pul 6.2 mi SSE 15.0 mph - N/A   Llovizna débil
4:00 PM 48.2 ° F - 44.6 ° F 87% 29.71 pul 6.2 mi SSE 12.7 mph - N/A   Nublado
5:00 PM 50.0 ° F - 44.6 ° F 82% 29.68 pul 6.2 mi SSE 11.5 mph - N/A   Muy nublado
5:30 PM 50.0 ° F - 44.6 ° F 82% 29.68 pul 6.2 mi Sur 15.0 mph - N/A   Llovizna débil
6:00 PM 50.0 ° F - 44.6 ° F 82% 29.65 pul 6.2 mi SSE 13.8 mph - N/A   Nublado
6:30 PM 50.0 ° F - 44.6 ° F 82% 29.62 pul 6.2 mi Sur 17.3 mph - N/A   Llovizna débil
8:00 PM 50.0 ° F - 44.6 ° F 82% 29.59 pul 6.2 mi Sur 16.1 mph - N/A   Llovizna
8:30 PM 50.0 ° F - 42.8 ° F 76% 29.59 pul 6.2 mi Sur 17.3 mph - N/A   Nubes dispersas
9:00 PM 48.2 ° F - 44.6 ° F 87% 29.59 pul 6.2 mi Sur 13.8 mph - N/A   Llovizna débil
9:30 PM 50.0 ° F - 42.8 ° F 76% 29.56 pul 6.2 mi Sur 16.1 mph - N/A   Nubes dispersas
10:00 PM 48.2 ° F - 42.8 ° F 82% 29.56 pul 6.2 mi SSE 8.1 mph - N/A   Muy nublado
10:30 PM 48.2 ° F - 44.6 ° F 87% 29.56 pul 6.2 mi SSE 13.8 mph - N/A   Muy nublado
11:00 PM 48.2 ° F - 44.6 ° F 87% 29.53 pul 6.2 mi SSE 11.5 mph - N/A   Llovizna débil